User: anonymous   Login
Location: Unspecified
(49.2170°N, 0.0000°E)
Time: 18:50:04
(UTC+00:00)
Language:

S-56A Canister/Altair - Orbit

View from above orbital plane
View from above orbital plane
View from above satellite
View from above satellite

Ground track
Ground track

The orbit data is extracted from the following two-line orbital elements,

1    82U 61004B   19176.16680743  .00000038  00000-0  69174-4 0  9992
2    82  38.8568  85.0245 1174639 154.3955 211.9981 12.26039220763832
Epoch (UTC): 25 June 2019 04:00:12
Eccentricity: 0.1174639
inclination: 38.8568°
perigee height: 633 km
apogee height: 2499 km
right ascension of ascending node: 85.0245°
argument of perigee: 154.3955°
revolutions per day: 12.26039220
mean anomaly at epoch: 211.9981°
orbit number at epoch: 76383

The dashed part of the orbit path shows where the satellite is in the earth's shadow,  

DLR